User: anonymous   Login
Location: �chenoz-la-M�line
(47.6009°N, 6.1354°E)
Time: 02:09:23
(UTC+00:00)
Language:

COSMOS 2428 - Orbit

View from above orbital plane
View from above orbital plane
View from above satellite
View from above satellite

Ground track
Ground track

The orbit data is extracted from the following two-line orbital elements,

1 31792U 07029A   21106.78488274  .00000164  00000-0  11519-3 0  9999
2 31792  70.8955 355.5807 0008610 309.1441  50.8914 14.12249141711698
Epoch (UTC): 16 April 2021 18:50:13
Eccentricity: 0.0008610
inclination: 70.8955°
perigee height: 845 km
apogee height: 858 km
right ascension of ascending node: 355.5807°
argument of perigee: 309.1441°
revolutions per day: 14.12249141
mean anomaly at epoch: 50.8914°
orbit number at epoch: 71169

The dashed part of the orbit path shows where the satellite is in the earth's shadow,  

DLR